Time,TemperatureF,DewpointF,PressureIn,WindDirection,WindDirectionDegrees,WindSpeedMPH,WindSpeedGustMPH,Humidity,HourlyPrecipIn,Conditions,Clouds,dailyrainin,SoftwareType,DateUTC
2013-01-21 01:27:00,47.8,19.0,30.04,SE,143,0.0,0.0,32,0.00,,,0.00,weatherlink.com 1.10,2013-01-21 08:27:00,
2013-01-21 01:34:00,49.6,18.0,30.04,SE,144,0.0,0.0,29,0.00,,,0.00,weatherlink.com 1.10,2013-01-21 08:34:00,
2013-01-21 01:49:00,51.1,18.0,30.05,SE,143,0.0,0.0,27,0.00,,,0.00,weatherlink.com 1.10,2013-01-21 08:49:00,
2013-01-21 02:04:00,51.1,18.0,30.04,NNE,23,0.0,1.0,27,0.00,,,0.00,weatherlink.com 1.10,2013-01-21 09:04:00,
2013-01-21 02:19:00,51.0,17.0,30.05,North,1,1.0,1.0,26,0.00,,,0.00,weatherlink.com 1.10,2013-01-21 09:19:00,
2013-01-21 02:34:00,51.2,17.0,30.04,NNE,29,0.0,1.0,26,0.00,,,0.00,weatherlink.com 1.10,2013-01-21 09:34:00,
2013-01-21 02:49:00,50.2,17.0,30.04,NNE,32,0.0,0.0,27,0.00,,,0.00,weatherlink.com 1.10,2013-01-21 09:49:00,
2013-01-21 03:04:00,48.0,18.0,30.04,NNE,32,0.0,0.0,30,0.00,,,0.00,weatherlink.com 1.10,2013-01-21 10:04:00,
2013-01-21 03:19:00,47.8,18.0,30.03,ENE,60,0.0,1.0,31,0.00,,,0.00,weatherlink.com 1.10,2013-01-21 10:19:00,
2013-01-21 03:34:00,47.0,19.0,30.03,ENE,70,0.0,1.0,33,0.00,,,0.00,weatherlink.com 1.10,2013-01-21 10:34:00,
2013-01-21 03:49:00,48.2,17.0,30.02,NNW,342,2.0,3.0,29,0.00,,,0.00,weatherlink.com 1.10,2013-01-21 10:49:00,
2013-01-21 04:04:00,50.3,16.0,30.02,North,8,1.0,3.0,26,0.00,,,0.00,weatherlink.com 1.10,2013-01-21 11:04:00,
2013-01-21 04:19:00,50.5,17.0,30.02,North,354,2.0,4.0,26,0.00,,,0.00,weatherlink.com 1.10,2013-01-21 11:19:00,
2013-01-21 04:34:00,51.2,15.0,30.02,NNE,23,2.0,5.0,24,0.00,,,0.00,weatherlink.com 1.10,2013-01-21 11:34:00,
2013-01-21 04:49:00,51.1,15.0,30.02,NNW,338,3.0,5.0,24,0.00,,,0.00,weatherlink.com 1.10,2013-01-21 11:49:00,
2013-01-21 05:04:00,51.3,14.0,30.02,NNW,343,3.0,5.0,23,0.00,,,0.00,weatherlink.com 1.10,2013-01-21 12:04:00,
2013-01-21 05:19:00,52.3,15.0,30.02,NE,34,3.0,6.0,23,0.00,,,0.00,weatherlink.com 1.10,2013-01-21 12:19:00,
2013-01-21 05:34:00,52.9,16.0,30.03,NNE,23,3.0,7.0,23,0.00,,,0.00,weatherlink.com 1.10,2013-01-21 12:34:00,
2013-01-21 05:49:00,52.5,15.0,30.02,NNE,32,0.0,5.0,23,0.00,,,0.00,weatherlink.com 1.10,2013-01-21 12:49:00,
2013-01-21 06:04:00,52.7,15.0,30.03,North,360,2.0,5.0,22,0.00,,,0.00,weatherlink.com 1.10,2013-01-21 13:04:00,
2013-01-21 06:19:00,52.0,15.0,30.03,North,4,3.0,5.0,23,0.00,,,0.00,weatherlink.com 1.10,2013-01-21 13:19:00,
2013-01-21 06:34:00,51.8,16.0,30.03,NW,322,1.0,4.0,24,0.00,,,0.00,weatherlink.com 1.10,2013-01-21 13:34:00,
2013-01-21 06:49:00,52.1,15.0,30.03,NNW,345,2.0,6.0,23,0.00,,,0.00,weatherlink.com 1.10,2013-01-21 13:49:00,
2013-01-21 07:04:00,51.9,15.0,30.04,NNE,27,1.0,6.0,23,0.00,,,0.00,weatherlink.com 1.10,2013-01-21 14:04:00,
2013-01-21 07:19:00,51.6,16.0,30.04,NW,318,1.0,3.0,24,0.00,,,0.00,weatherlink.com 1.10,2013-01-21 14:19:00,
2013-01-21 07:34:00,52.4,15.0,30.04,NE,49,2.0,6.0,23,0.00,,,0.00,weatherlink.com 1.10,2013-01-21 14:34:00,
2013-01-21 07:49:00,53.3,15.0,30.05,NNE,26,4.0,6.0,22,0.00,,,0.00,weatherlink.com 1.10,2013-01-21 14:49:00,
2013-01-21 08:04:00,53.6,15.0,30.05,NNE,32,3.0,7.0,22,0.00,,,0.00,weatherlink.com 1.10,2013-01-21 15:04:00,
2013-01-21 08:19:00,54.9,15.0,30.05,NNE,26,3.0,9.0,21,0.00,,,0.00,weatherlink.com 1.10,2013-01-21 15:19:00,
2013-01-21 08:34:00,55.5,16.0,30.06,ENE,64,6.0,8.0,21,0.00,,,0.00,weatherlink.com 1.10,2013-01-21 15:34:00,
2013-01-21 08:49:00,57.0,15.0,30.07,North,1,6.0,8.0,19,0.00,,,0.00,weatherlink.com 1.10,2013-01-21 15:49:00,
2013-01-21 09:04:00,57.7,15.0,30.08,NNE,24,9.0,10.0,19,0.00,,,0.00,weatherlink.com 1.10,2013-01-21 16:04:00,
2013-01-21 09:19:00,58.5,16.0,30.08,NNE,20,7.0,11.0,19,0.00,,,0.00,weatherlink.com 1.10,2013-01-21 16:19:00,
2013-01-21 09:34:00,59.3,17.0,30.09,North,355,7.0,12.0,19,0.00,,,0.00,weatherlink.com 1.10,2013-01-21 16:34:00,
2013-01-21 09:50:00,60.3,18.0,30.09,NE,49,5.0,10.0,19,0.00,,,0.00,weatherlink.com 1.10,2013-01-21 16:50:00,
2013-01-21 10:05:00,61.3,17.0,30.09,NNE,30,2.0,11.0,18,0.00,,,0.00,weatherlink.com 1.10,2013-01-21 17:05:00,
2013-01-21 10:20:00,62.5,18.0,30.10,NE,37,11.0,11.0,18,0.00,,,0.00,weatherlink.com 1.10,2013-01-21 17:20:00,
2013-01-21 10:35:00,63.9,18.0,30.10,NNE,28,12.0,12.0,17,0.00,,,0.00,weatherlink.com 1.10,2013-01-21 17:35:00,
2013-01-21 10:50:00,65.0,18.0,30.10,NNE,17,6.0,9.0,16,0.00,,,0.00,weatherlink.com 1.10,2013-01-21 17:50:00,
2013-01-21 11:05:00,66.2,17.0,30.11,NE,39,7.0,9.0,15,0.00,,,0.00,weatherlink.com 1.10,2013-01-21 18:05:00,
2013-01-21 11:20:00,67.9,18.0,30.10,ENE,60,4.0,11.0,15,0.00,,,0.00,weatherlink.com 1.10,2013-01-21 18:20:00,
2013-01-21 11:35:00,68.9,16.0,30.09,NNW,342,6.0,13.0,13,0.00,,,0.00,weatherlink.com 1.10,2013-01-21 18:35:00,
2013-01-21 11:50:00,69.3,16.0,30.09,NNE,29,5.0,14.0,13,0.00,,,0.00,weatherlink.com 1.10,2013-01-21 18:50:00,
2013-01-21 12:05:00,70.2,15.0,30.09,NW,314,5.0,13.0,12,0.00,,,0.00,weatherlink.com 1.10,2013-01-21 19:05:00,
2013-01-21 12:20:00,70.9,16.0,30.09,NNW,330,6.0,14.0,12,0.00,,,0.00,weatherlink.com 1.10,2013-01-21 19:20:00,
2013-01-21 12:35:00,71.6,14.0,30.08,North,360,6.0,14.0,11,0.00,,,0.00,weatherlink.com 1.10,2013-01-21 19:35:00,
2013-01-21 12:50:00,71.9,14.0,30.07,NNW,329,7.0,12.0,11,0.00,,,0.00,weatherlink.com 1.10,2013-01-21 19:50:00,
2013-01-21 13:05:00,72.4,15.0,30.07,NNW,338,4.0,11.0,11,0.00,,,0.00,weatherlink.com 1.10,2013-01-21 20:05:00,
2013-01-21 13:20:00,72.7,13.0,30.06,NNW,347,10.0,16.0,10,0.00,,,0.00,weatherlink.com 1.10,2013-01-21 20:20:00,
2013-01-21 13:35:00,73.8,14.0,30.05,NNE,16,8.0,12.0,10,0.00,,,0.00,weatherlink.com 1.10,2013-01-21 20:35:00,
2013-01-21 13:50:00,73.4,13.0,30.05,NNE,22,11.0,13.0,10,0.00,,,0.00,weatherlink.com 1.10,2013-01-21 20:50:00,
2013-01-21 14:06:00,73.7,14.0,30.04,North,352,4.0,14.0,10,0.00,,,0.00,weatherlink.com 1.10,2013-01-21 21:06:00,
2013-01-21 14:21:00,74.1,14.0,30.04,North,5,6.0,12.0,10,0.00,,,0.00,weatherlink.com 1.10,2013-01-21 21:21:00,
2013-01-21 14:36:00,74.9,12.0,30.04,NNE,30,3.0,11.0,9,0.00,,,0.00,weatherlink.com 1.10,2013-01-21 21:36:00,
2013-01-21 14:51:00,75.2,12.0,30.04,NE,43,9.0,9.0,9,0.00,,,0.00,weatherlink.com 1.10,2013-01-21 21:51:00,
2013-01-21 15:06:00,75.2,12.0,30.03,NNW,342,3.0,10.0,9,0.00,,,0.00,weatherlink.com 1.10,2013-01-21 22:06:00,
2013-01-21 15:21:00,75.4,15.0,30.03,North,1,5.0,11.0,10,0.00,,,0.00,weatherlink.com 1.10,2013-01-21 22:21:00,
2013-01-21 15:36:00,75.4,15.0,30.02,NNW,340,8.0,11.0,10,0.00,,,0.00,weatherlink.com 1.10,2013-01-21 22:36:00,
2013-01-21 15:51:00,75.1,15.0,30.02,WNW,291,5.0,12.0,10,0.00,,,0.00,weatherlink.com 1.10,2013-01-21 22:51:00,
2013-01-21 16:06:00,75.1,17.0,30.02,North,357,10.0,11.0,11,0.00,,,0.00,weatherlink.com 1.10,2013-01-21 23:06:00,
2013-01-21 16:21:00,74.9,17.0,30.02,NW,319,4.0,12.0,11,0.00,,,0.00,weatherlink.com 1.10,2013-01-21 23:21:00,
2013-01-21 16:36:00,74.5,19.0,30.02,North,356,9.0,13.0,12,0.00,,,0.00,weatherlink.com 1.10,2013-01-21 23:36:00,
2013-01-21 16:51:00,73.7,18.0,30.02,NW,323,6.0,11.0,12,0.00,,,0.00,weatherlink.com 1.10,2013-01-21 23:51:00,
2013-01-21 17:06:00,73.2,19.0,30.01,NNW,329,3.0,12.0,13,0.00,,,0.00,weatherlink.com 1.10,2013-01-22 00:06:00,
2013-01-21 17:21:00,72.4,20.0,30.01,NNW,347,3.0,10.0,14,0.00,,,0.00,weatherlink.com 1.10,2013-01-22 00:21:00,
2013-01-21 17:36:00,71.0,19.0,30.01,NNW,335,3.0,8.0,14,0.00,,,0.00,weatherlink.com 1.10,2013-01-22 00:36:00,
2013-01-21 17:51:00,69.9,20.0,30.02,NW,304,2.0,6.0,15,0.00,,,0.00,weatherlink.com 1.10,2013-01-22 00:51:00,
2013-01-21 18:06:00,68.4,19.0,30.02,NW,326,1.0,4.0,15,0.00,,,0.00,weatherlink.com 1.10,2013-01-22 01:06:00,
2013-01-21 18:21:00,66.9,19.0,30.02,NW,316,1.0,4.0,16,0.00,,,0.00,weatherlink.com 1.10,2013-01-22 01:21:00,
2013-01-21 18:36:00,65.3,19.0,30.02,NW,324,0.0,1.0,17,0.00,,,0.00,weatherlink.com 1.10,2013-01-22 01:36:00,
2013-01-21 18:51:00,63.7,19.0,30.03,NW,325,0.0,1.0,18,0.00,,,0.00,weatherlink.com 1.10,2013-01-22 01:51:00,
2013-01-21 19:06:00,62.6,20.0,30.03,NNW,333,1.0,3.0,19,0.00,,,0.00,weatherlink.com 1.10,2013-01-22 02:06:00,
2013-01-21 19:21:00,62.2,20.0,30.03,NNE,20,0.0,2.0,20,0.00,,,0.00,weatherlink.com 1.10,2013-01-22 02:21:00,
2013-01-21 19:36:00,61.9,19.0,30.03,North,350,0.0,1.0,19,0.00,,,0.00,weatherlink.com 1.10,2013-01-22 02:36:00,
2013-01-21 19:51:00,62.2,18.0,30.03,North,11,1.0,2.0,18,0.00,,,0.00,weatherlink.com 1.10,2013-01-22 02:51:00,
2013-01-21 20:06:00,61.2,20.0,30.03,NNE,20,0.0,1.0,20,0.00,,,0.00,weatherlink.com 1.10,2013-01-22 03:06:00,
2013-01-21 20:21:00,59.3,20.0,30.02,NNE,20,0.0,0.0,22,0.00,,,0.00,weatherlink.com 1.10,2013-01-22 03:21:00,
2013-01-21 20:36:00,56.3,19.0,30.03,NNE,20,0.0,0.0,23,0.00,,,0.00,weatherlink.com 1.10,2013-01-22 03:36:00,
2013-01-21 20:51:00,56.1,19.0,30.02,NNE,20,0.0,0.0,23,0.00,,,0.00,weatherlink.com 1.10,2013-01-22 03:51:00,
2013-01-21 21:06:00,56.2,19.0,30.03,NNE,20,0.0,0.0,23,0.00,,,0.00,weatherlink.com 1.10,2013-01-22 04:06:00,
2013-01-21 21:21:00,54.6,18.0,30.03,NNE,20,0.0,0.0,24,0.00,,,0.00,weatherlink.com 1.10,2013-01-22 04:21:00,
2013-01-21 21:36:00,57.7,17.0,30.04,NNW,330,1.0,2.0,20,0.00,,,0.00,weatherlink.com 1.10,2013-01-22 04:36:00,
2013-01-21 21:51:00,57.1,17.0,30.04,NW,323,0.0,2.0,21,0.00,,,0.00,weatherlink.com 1.10,2013-01-22 04:51:00,
2013-01-21 22:06:00,55.6,18.0,30.05,WSW,253,1.0,1.0,23,0.00,,,0.00,weatherlink.com 1.10,2013-01-22 05:06:00,
2013-01-21 22:21:00,52.6,18.0,30.05,SSW,201,0.0,1.0,25,0.00,,,0.00,weatherlink.com 1.10,2013-01-22 05:21:00,
2013-01-21 22:36:00,52.5,17.0,30.06,SSW,197,0.0,2.0,25,0.00,,,0.00,weatherlink.com 1.10,2013-01-22 05:36:00,
2013-01-21 22:51:00,51.6,18.0,30.06,SSE,156,1.0,2.0,26,0.00,,,0.00,weatherlink.com 1.10,2013-01-22 05:51:00,
2013-01-21 23:06:00,51.7,17.0,30.06,SSE,156,0.0,1.0,25,0.00,,,0.00,weatherlink.com 1.10,2013-01-22 06:06:00,
2013-01-21 23:21:00,50.8,17.0,30.06,SSE,156,0.0,0.0,26,0.00,,,0.00,weatherlink.com 1.10,2013-01-22 06:21:00,
2013-01-21 23:36:00,49.9,19.0,30.06,SSE,148,0.0,2.0,30,0.00,,,0.00,weatherlink.com 1.10,2013-01-22 06:36:00,
2013-01-21 23:51:00,49.3,19.0,30.07,SSE,148,0.0,1.0,30,0.00,,,0.00,weatherlink.com 1.10,2013-01-22 06:51:00,